Location: Sternwarte auf dem Internationalen Platz Vogelsang IP
(50.5721°N, 6.4398°E)
Time: 04:47:14
(UTC+01:00)

Transit 2A Rocket - Pass Details

Date: 15 December 2025
Orbit: 581 x 903 km, 66.7° (Epoch: 13 January)

Event Time Altitude Azimuth Distance (km) Brightness Sun altitude
Rises 13:33:35 0° 310° (NW) 3,508 8.2 14.8°
Reaches altitude 10° 13:36:58 10° 328° (NNW) 2,586 7.4 14.6°
Maximum altitude 13:41:02 18° 11° (N) 2,060 6.7 14.5°
Drops below altitude 10° 13:45:06 10° 53° (NE) 2,573 7.3 14.3°
Sets 13:48:26 0° 72° (ENE) 3,484 8.1 14.1°
